Weather History for KCDH - October, 2014

Change the Weather History Date:

Sunday, October 26, 2014

  Actual Average Record
Temperature  
Mean Temperature 71 °F -  
Max Temperature 87 °F 71 °F 88 °F (1931)
Min Temperature 55 °F 45 °F 29 °F (1982)
Cooling Degree Days 6    
Growing Degree Days 21 (Base 50)    
Moisture  
Dew Point 60 °F    
Average Humidity 77    
Maximum Humidity 100    
Minimum Humidity 43    
Precipitation  
Precipitation 0.00 in - - ()
Sea Level Pressure  
Sea Level Pressure 29.99 in    
Wind  
Wind Speed 2 mph (NE)    
Max Wind Speed 9 mph    
Max Gust Speed -    
Visibility 6 miles    
Events Fog    
Averages and records for this station are not official NWS values.
T = Trace of Precipitation, MM = Missing Value Source: NWS Daily Summary

Daily Weather History Graph

Daily Weather History Graph

Search for Another Location

Airport or City:

Trip Planner

Search our weather history database for the weather conditions in past years. The results will help you decide how hot, cold, wet, or windy it might be!

Date:

Astronomy

Oct. 26, 2014 Rise Set
Actual Time 7:24 AM CDT 6:24 PM CDT
Civil Twilight 6:59 AM CDT 6:50 PM CDT
Nautical Twilight 6:30 AM CDT 7:19 PM CDT
Astronomical Twilight 6:01 AM CDT 7:48 PM CDT
Moon 9:58 AM CDT (10/26) 8:42 PM CDT (10/26)
Length of Visible Light 11h 50m
Length of Day
10h 59m
Waxing Crescent, 8% of the Moon is Illuminated
Oct 26
Waxing Crescent
Oct 30
First Quarter
Nov 6
Full
Nov 14
Last Quarter
Nov 22
New

Hourly Weather History & Observations

Time (CDT) Temp. Heat Index Dew Point Humidity Pressure Visibility Wind Dir Wind Speed Gust Speed Precip Events Conditions
12:15 AM 60.8 °F - 59.0 °F 94% 30.05 in 0.2 mi Calm Calm - N/A Fog Fog
12:35 AM 60.8 °F - 59.0 °F 94% 30.04 in 0.5 mi Calm Calm - N/A Fog Fog
12:55 AM 59.0 °F - 57.2 °F 94% 30.04 in 2.5 mi Calm Calm - N/A   Clear
1:15 AM 59.0 °F - 57.2 °F 94% 30.04 in 0.8 mi Calm Calm - N/A   Mist
1:35 AM 59.0 °F - 57.2 °F 94% 30.03 in 0.2 mi Calm Calm - N/A Fog Fog
1:55 AM 59.0 °F - 57.2 °F 94% 30.03 in 0.2 mi Calm Calm - N/A Fog Fog
2:15 AM 59.0 °F - 57.2 °F 94% 30.03 in 5.0 mi Calm Calm - N/A   Clear
2:35 AM 59.0 °F - 57.2 °F 94% 30.03 in 3.0 mi Calm Calm - N/A   Clear
2:55 AM 57.2 °F - 57.2 °F 100% 30.02 in 2.0 mi Calm Calm - N/A   Clear
3:15 AM 59.0 °F - 57.2 °F 94% 30.02 in 0.2 mi Calm Calm - N/A Fog Fog
3:35 AM 57.2 °F - 55.4 °F 94% 30.02 in 1.0 mi Calm Calm - N/A   Clear
3:55 AM 57.2 °F - 55.4 °F 94% 30.01 in 2.5 mi Calm Calm - N/A   Clear
4:15 AM 57.2 °F - 55.4 °F 94% 30.01 in 0.2 mi Calm Calm - N/A Fog Fog
4:35 AM 57.2 °F - 55.4 °F 94% 30.01 in 1.0 mi Calm Calm - N/A   Clear
4:55 AM 57.2 °F - 55.4 °F 94% 30.01 in 0.2 mi Calm Calm - N/A Fog Fog
5:15 AM 57.2 °F - 55.4 °F 94% 30.02 in 5.0 mi Calm Calm - N/A   Clear
5:35 AM 55.4 °F - 53.6 °F 94% 30.02 in 0.5 mi Calm Calm - N/A Fog Fog
5:55 AM 55.4 °F - 55.4 °F 100% 30.02 in 1.2 mi Calm Calm - N/A   Clear
6:15 AM 55.4 °F - 53.6 °F 94% 30.03 in 0.2 mi Calm Calm - N/A Fog Fog
6:35 AM 55.4 °F - 53.6 °F 94% 30.03 in 1.5 mi Calm Calm - N/A   Clear
6:55 AM 55.4 °F - 53.6 °F 94% 30.04 in 0.8 mi Calm Calm - N/A   Mist
7:15 AM 55.4 °F - 53.6 °F 94% 30.04 in 0.2 mi Calm Calm - N/A Fog Fog
7:35 AM 55.4 °F - 53.6 °F 94% 30.04 in 1.5 mi Calm Calm - N/A   Scattered Clouds
7:55 AM 55.4 °F - 53.6 °F 94% 30.04 in 1.0 mi Calm Calm - N/A   Clear
8:15 AM 57.2 °F - 55.4 °F 94% 30.05 in 5.0 mi Calm Calm - N/A   Clear
8:35 AM 59.0 °F - 57.2 °F 94% 30.06 in 2.5 mi Calm Calm - N/A   Clear
8:55 AM 62.6 °F - 59.0 °F 88% 30.06 in 2.0 mi Calm Calm - N/A   Clear
9:15 AM 64.4 °F - 60.8 °F 88% 30.06 in 3.0 mi Calm Calm - N/A   Clear
9:35 AM 66.2 °F - 62.6 °F 88% 30.05 in 5.0 mi NE 3.5 mph - N/A   Haze
9:55 AM 68.0 °F - 62.6 °F 83% 30.06 in 7.0 mi NE 4.6 mph - N/A   Clear
10:15 AM 71.6 °F - 62.6 °F 73% 30.05 in 7.0 mi NE 3.5 mph - N/A   Clear
10:35 AM 75.2 °F - 64.4 °F 69% 30.05 in 8.0 mi NE 4.6 mph - N/A   Clear
10:55 AM 77.0 °F - 64.4 °F 65% 30.05 in 9.0 mi Calm Calm - N/A   Clear
11:15 AM 80.6 °F 81.8 °F 62.6 °F 54% 30.04 in 10.0 mi NE 4.6 mph - N/A   Clear
11:35 AM 82.4 °F 83.9 °F 64.4 °F 54% 30.04 in 9.0 mi NE 4.6 mph - N/A   Clear
11:55 AM 82.4 °F 83.4 °F 62.6 °F 51% 30.03 in 9.0 mi NE 4.6 mph - N/A   Clear
12:15 PM 84.2 °F 85.6 °F 64.4 °F 51% 30.03 in 10.0 mi Calm Calm - N/A   Clear
12:35 PM 84.2 °F 85.6 °F 64.4 °F 51% 30.02 in 10.0 mi NE 6.9 mph - N/A   Clear
12:55 PM 84.2 °F 85.6 °F 64.4 °F 51% 30.01 in 10.0 mi NE 9.2 mph - N/A   Clear
1:15 PM 86.0 °F 86.6 °F 62.6 °F 45% 30.00 in 10.0 mi NE 6.9 mph - N/A   Clear
1:35 PM 86.0 °F 86.6 °F 62.6 °F 45% 29.98 in 9.0 mi NE 5.8 mph - N/A   Clear
1:55 PM 86.0 °F 86.6 °F 62.6 °F 45% 29.97 in 10.0 mi NE 9.2 mph - N/A   Clear
2:15 PM 86.0 °F 86.1 °F 60.8 °F 43% 29.96 in 10.0 mi NE 8.1 mph - N/A   Clear
2:35 PM 87.8 °F 88.5 °F 62.6 °F 43% 29.95 in 10.0 mi NE 8.1 mph - N/A   Clear
2:55 PM 86.0 °F 86.1 °F 60.8 °F 43% 29.95 in 10.0 mi NE 8.1 mph - N/A   Clear
3:15 PM 86.0 °F 86.6 °F 62.6 °F 45% 29.94 in 10.0 mi NE 5.8 mph - N/A   Clear
3:35 PM 86.0 °F 86.1 °F 60.8 °F 43% 29.94 in 10.0 mi NE 8.1 mph - N/A   Clear
3:55 PM 86.0 °F 86.1 °F 60.8 °F 43% 29.93 in 10.0 mi NE 8.1 mph - N/A   Clear
4:15 PM 86.0 °F 86.6 °F 62.6 °F 45% 29.93 in 10.0 mi NE 6.9 mph - N/A   Clear
4:35 PM 86.0 °F 86.1 °F 60.8 °F 43% 29.94 in 10.0 mi NE 6.9 mph - N/A   Partly Cloudy
4:55 PM 84.2 °F 84.4 °F 60.8 °F 45% 29.93 in 10.0 mi NE 5.8 mph - N/A   Partly Cloudy
5:15 PM 84.2 °F 85.0 °F 62.6 °F 48% 29.94 in 10.0 mi NE 6.9 mph - N/A   Clear
5:35 PM 82.4 °F 83.4 °F 62.6 °F 51% 29.93 in 10.0 mi NE 3.5 mph - N/A   Clear
5:55 PM 80.6 °F 81.8 °F 62.6 °F 54% 29.93 in 10.0 mi NE 4.6 mph - N/A   Clear
6:15 PM 78.8 °F - 62.6 °F 57% 29.93 in 10.0 mi Calm Calm - N/A   Clear
6:35 PM 75.2 °F - 64.4 °F 69% 29.94 in 10.0 mi Calm Calm - N/A   Clear
6:55 PM 71.6 °F - 64.4 °F 78% 29.94 in 10.0 mi Calm Calm - N/A   Clear
7:15 PM 68.0 °F - 64.4 °F 88% 29.94 in 9.0 mi NE 3.5 mph - N/A   Clear
7:35 PM 68.0 °F - 64.4 °F 88% 29.95 in 10.0 mi NE 3.5 mph - N/A   Clear
7:55 PM 66.2 °F - 62.6 °F 88% 29.95 in 10.0 mi NE 3.5 mph - N/A   Clear
8:15 PM 66.2 °F - 62.6 °F 88% 29.95 in 9.0 mi NE 3.5 mph - N/A   Clear
8:35 PM 64.4 °F - 62.6 °F 94% 29.95 in 7.0 mi Calm Calm - N/A   Clear
8:55 PM 64.4 °F - 62.6 °F 94% 29.94 in 6.0 mi Calm Calm - N/A   Clear
9:15 PM 64.4 °F - 60.8 °F 88% 29.95 in 0.2 mi Calm Calm - N/A Fog Fog
9:35 PM 64.4 °F - 60.8 °F 88% 29.95 in 5.0 mi NE 3.5 mph - N/A   Clear
9:55 PM 62.6 °F - 60.8 °F 94% 29.95 in 10.0 mi NE 4.6 mph - N/A   Clear
10:15 PM 64.4 °F - 59.0 °F 83% 29.95 in 10.0 mi NE 5.8 mph - N/A   Clear
10:35 PM 64.4 °F - 59.0 °F 83% 29.94 in 10.0 mi NE 4.6 mph - N/A   Clear
10:55 PM 62.6 °F - 57.2 °F 82% 29.94 in 10.0 mi NNE 5.8 mph - N/A   Clear
11:15 PM 62.6 °F - 57.2 °F 82% 29.94 in 10.0 mi NE 3.5 mph - N/A   Clear
11:35 PM 62.6 °F - 57.2 °F 82% 29.93 in 10.0 mi NE 3.5 mph - N/A   Clear
11:55 PM 62.6 °F - 57.2 °F 82% 29.93 in 10.0 mi NE 3.5 mph - N/A   Clear